Weather History for MMMX - February, 2013

Change the Weather History Date:

Sunday, February 3, 2013

  Actual Average Record
Temperature  
Mean Temperature 58 °F -  
Max Temperature 75 °F 72 °F 75 °F (1999)
Min Temperature 42 °F 43 °F 30 °F (1998)
Degree Days  
Heating Degree Days 6    
Growing Degree Days 8 (Base 50)    
Moisture  
Dew Point 30 °F    
Average Humidity 41    
Maximum Humidity 76    
Minimum Humidity 11    
Precipitation  
Precipitation 0.00 in - - ()
Sea Level Pressure  
Sea Level Pressure 30.27 in    
Wind  
Wind Speed 4 mph ()    
Max Wind Speed 15 mph    
Max Gust Speed -    
Visibility 10.2 miles    
Events      
Averages and records for this station are not official NWS values.
T = Trace of Precipitation, MM = Missing Value Source: Averaged Metar Reports

Daily Weather History Graph

Daily Weather History Graph

Search for Another Location

Airport or City:

Trip Planner

Search our weather history database for the weather conditions in past years. The results will help you decide how hot, cold, wet, or windy it might be!

Date:

Astronomy

Feb. 03, 2013 Rise Set
Actual Time 7:10 AM CST 6:30 PM CST
Civil Twilight 6:47 AM CST 6:53 PM CST
Nautical Twilight 6:21 AM CST 7:19 PM CST
Astronomical Twilight 5:55 AM CST 7:45 PM CST
Moon 12:37 AM CST (2/3) 12:13 PM CST (2/3)
Length of Visible Light 12h 05m
Length of Day
11h 20m
Waning Gibbous, 48% of the Moon is Illuminated
Feb 3
Waning Gibbous
Feb 10
New
Feb 17
First Quarter
Feb 25
Full
Mar 4
Last Quarter

Hourly Weather History & Observations

Time (CST) Temp. Windchill Dew Point Humidity Pressure Visibility Wind Dir Wind Speed Gust Speed Precip Events Conditions
12:53 AM 57.2 °F - 33.8 °F 41% 30.40 in 14.0 mi Calm Calm - N/A   Clear
1:55 AM 55.4 °F - 35.6 °F 47% 30.40 in 14.0 mi Calm Calm - N/A   Clear
2:04 AM 51.8 °F - 35.6 °F 54% 30.40 in 14.0 mi NE 2.3 mph - N/A   Clear
2:49 AM 48.2 °F - 35.6 °F 62% 30.39 in 12.0 mi Calm Calm - N/A   Clear
2:52 AM 48.2 °F - 35.6 °F 62% 29.91 in 12.0 mi Calm Calm - N/A   Clear
3:51 AM 46.4 °F 42.9 °F 33.8 °F 62% 30.39 in 12.0 mi ENE 6.9 mph - N/A   Clear
4:41 AM 42.8 °F 39.3 °F 35.6 °F 76% 30.39 in 12.0 mi East 5.8 mph - N/A   Clear
4:43 AM 42.8 °F 39.3 °F 35.6 °F 76% 30.39 in 12.0 mi East 5.8 mph - N/A   Clear
5:40 AM 42.8 °F 38.6 °F 32.0 °F 66% 29.98 in 12.0 mi ENE 6.9 mph - N/A   Clear
6:25 AM 42.8 °F 41.1 °F 28.4 °F 57% 30.41 in 12.0 mi ENE 3.5 mph - N/A   Clear
6:47 AM 42.8 °F 41.1 °F 28.4 °F 57% 30.42 in 10.0 mi NE 3.5 mph - N/A   Clear
7:21 AM 44.6 °F 43.1 °F 32.0 °F 61% 30.42 in 10.0 mi ENE 3.5 mph - N/A   Clear
7:43 AM 44.6 °F 43.1 °F 30.2 °F 57% 30.42 in 8.0 mi East 3.5 mph - N/A   Clear
8:21 AM 46.4 °F 42.9 °F 30.2 °F 53% 30.43 in 8.0 mi ENE 6.9 mph - N/A   Clear
8:43 AM 48.2 °F - 32.0 °F 54% 30.06 in 8.0 mi NE 4.6 mph - N/A   Clear
9:05 AM 51.8 °F - 33.8 °F 50% 30.44 in 8.0 mi ENE 6.9 mph - N/A   Clear
9:22 AM 53.6 °F - 33.8 °F 47% 30.45 in 8.0 mi NE 4.6 mph - N/A   Clear
9:44 AM 55.4 °F - 33.8 °F 44% 30.45 in 6.0 mi NE 3.5 mph - N/A   Clear
10:18 AM 59.0 °F - 33.8 °F 39% 30.45 in 6.0 mi NNE 4.6 mph - N/A   Clear
10:45 AM 60.8 °F - 33.8 °F 36% 30.44 in 6.0 mi NNE 4.6 mph - N/A   Clear
11:44 AM 64.4 °F - 28.4 °F 26% 30.41 in 8.0 mi NNE 4.6 mph - N/A   Clear
11:47 AM 64.4 °F - 28.4 °F 26% 29.94 in 8.0 mi NNE 3.5 mph - N/A   Clear
12:34 PM 68.0 °F - 24.8 °F 20% 30.37 in 10.0 mi NE 9.2 mph - N/A   Clear
12:40 PM 68.0 °F - 24.8 °F 20% 30.37 in 10.0 mi NNE 9.2 mph - N/A   Clear
1:47 PM 69.8 °F - 21.2 °F 16% 30.33 in 10.0 mi NNE 4.6 mph - N/A   Clear
2:34 PM 73.4 °F - 15.8 °F 11% 30.29 in 10.0 mi West 5.8 mph - N/A   Clear
2:45 PM 73.4 °F - 17.6 °F 12% 29.86 in 10.0 mi NW 6.9 mph - N/A   Clear
3:44 PM 75.2 °F - 19.4 °F 12% 30.26 in 10.0 mi ENE 5.8 mph - N/A   Clear
4:45 PM 75.2 °F - 19.4 °F 12% 30.24 in 10.0 mi NNW 3.5 mph - N/A   Clear
5:43 PM 73.4 °F - 19.4 °F 13% 29.81 in 10.0 mi SSE 6.9 mph - N/A   Clear
6:21 PM 69.8 °F - 32.0 °F 25% 30.25 in 10.0 mi SE 15.0 mph - N/A   Clear
6:44 PM 68.0 °F - 33.8 °F 28% 30.26 in 10.0 mi SSE 13.8 mph - N/A   Clear
7:44 PM 66.2 °F - 33.8 °F 30% 30.29 in 10.0 mi South 6.9 mph - N/A   Clear
8:44 PM 64.4 °F - 35.6 °F 34% 29.90 in 12.0 mi South 9.2 mph - N/A   Clear
9:49 PM 62.6 °F - 33.8 °F 34% 30.32 in 12.0 mi SW 8.1 mph - N/A   Clear
10:45 PM 62.6 °F - 37.4 °F 39% 30.33 in 12.0 mi West 6.9 mph - N/A   Clear
11:49 PM 59.0 °F - 39.2 °F 48% 29.87 in 12.0 mi Calm Calm - N/A   Clear